Tracking 35334 objects as of 13-Sep-2026
HD Live streaming from Space Station
objects crossing your sky now

CONTOUR

Track CONTOUR now!
CONTOUR is classified as:


NORAD ID: 27457
Int'l Code: 2002-034A
Launch date: July 3, 2002
Source: United States (US)
Launch site: AIR FORCE EASTERN TEST RANGE (AFETR)
Your satellite tracking list
Your tracking list is empty




NASA's NSSDC Master Catalog

Two Line Element Set (TLE):
1 27457U 02034A   02218.70833333 +.00000000 +00000-0 +00000-0 0  9997
2 27457 030.5521 190.6101 8915936 340.4630 356.7346 00.57921679000002
Source of the keplerian elements: AFSPC